This demonstration page uses our WeatherBlox Daily Observations layout. Learn more.

Left ArrowRight Arrow

38.88101, -77.10428

Hourly Observations for December 27, 2020

Temp ( °F °C ) Dew Point ( °F °C ) Humidity (%) Winds ( mph kmh ) Pressure ( in mb ) Visibility ( mi km ) Precip ( " mm )
12:52 am 00:52 Mostly Cloudy 29 -1.7 16 -8.9 58 58 N 7 11 30.16 1022 10 16 0.00 0.00
1:52 am 01:52 Mostly Cloudy 30 -1.1 17 -8.3 58 58 NE 8 13 30.18 1022 10 16 0.00 0.00
2:52 am 02:52 Cloudy 30 -1.1 18 -7.8 61 61 NNE 10 17 30.19 1023 10 16 0.00 0.00
3:52 am 03:52 Cloudy 30 -1.1 18 -7.8 61 61 Calm 30.22 1023 10 16 0.00 0.00
4:52 am 04:52 Cloudy 29 -1.7 18 -7.8 63 63 Calm 30.24 1024 10 16 0.00 0.00
5:52 am 05:52 Partly Cloudy 27 -2.8 18 -7.8 69 69 WSW 5 7 30.27 1025 10 16 0.00 0.00
6:52 am 06:52 Mostly Cloudy 28 -2.2 18 -7.8 66 66 SSW 3 6 30.30 1026 10 16 0.00 0.00
7:52 am 07:52 Partly Cloudy 26 -3.3 19 -7.2 75 75 SW 6 9 30.31 1027 10 16 0.00 0.00
8:52 am 08:52 Partly Cloudy 31 -0.6 24 -4.4 76 76 SE 3 6 30.33 1027 10 16 0.00 0.00
9:52 am 09:52 Partly Cloudy 35 1.7 21 -6.1 57 57 Calm 30.35 1028 10 16 0.00 0.00
10:52 am 10:52 Partly Cloudy 37 2.8 20 -6.7 50 50 S 3 6 30.36 1028 10 16 0.00 0.00
11:52 am 11:52 Partly Cloudy 38 3.3 19 -7.2 46 46 VRB 3 6 30.33 1027 10 16 0.00 0.00
12:52 pm 12:52 Partly Cloudy 39 3.9 20 -6.7 46 46 S 7 11 30.32 1027 10 16 0.00 0.00
1:52 pm 13:52 Partly Cloudy 41 5 21 -6.1 45 45 S 7 11 30.30 1026 10 16 0.00 0.00
2:52 pm 14:52 Partly Cloudy 42 5.6 22 -5.6 45 45 S 6 9 30.29 1026 10 16 0.00 0.00
3:52 pm 15:52 Mostly Cloudy 42 5.6 24 -4.4 49 49 S 8 13 30.29 1026 10 16 0.00 0.00
4:52 pm 16:52 Cloudy 40 4.4 25 -3.9 55 55 S 9 15 30.29 1026 10 16 0.00 0.00
5:52 pm 17:52 Cloudy 39 3.9 25 -3.9 57 57 SSE 7 11 30.30 1026 10 16 0.00 0.00
6:52 pm 18:52 Cloudy 36 2.2 24 -4.4 62 62 SSE 7 11 30.31 1026 10 16 0.00 0.00
7:52 pm 19:52 Cloudy 36 2.2 25 -3.9 64 64 SSE 7 11 30.30 1026 10 16 0.00 0.00
8:52 pm 20:52 Cloudy 37 2.8 28 -2.2 70 70 S 9 15 30.30 1026 10 16 0.00 0.00
9:52 pm 21:52 Cloudy 37 2.8 29 -1.7 73 73 S 12 19 30.30 1026 10 16 0.00 0.00
10:52 pm 22:52 Cloudy 35 1.7 29 -1.7 78 78 S 7 11 30.29 1026 10 16 0.00 0.00
11:52 pm 23:52 Cloudy 37 2.8 32 0 82 82 S 7 11 30.28 1025 10 16 0.00 0.00

Powered by AerisWeather